Powrót do katalogu

SL-8 R/B

AktywnyLEO
NORAD 13649·ROCKET BODY·🇷🇺 Russia

Wystrzelony Nov 11, 1982 z Plesetsk Cosmodrome

Loading…

Następne Przeloty (najbliższe 24 godziny)

TLE

ŚwieżeSource: Space-Track

Epoka: Sep 14, 2026, 18:04 UTC

1 13649U 82109B   26257.75331214  .00000033  00000-0  19565-4 0  9997
2 13649  73.9973 264.1846 0018542 344.1574 189.2530 14.38692687296551

Śledź SL-8 R/B w czasie rzeczywistym z AllMySat

Download on the App Store